Weather History for Florala, AL

Change the Weather History Date:

Tuesday, October 4, 2011

  Actual Average (KCEW) Record (KCEW)
Temperature  
Mean Temperature 64 °F -  
Max Temperature 82 °F 85 °F 93 °F (2013)
Min Temperature 46 °F 58 °F 45 °F (1980)
Degree Days  
Heating Degree Days 1    
Growing Degree Days 14 (Base 50)    
Moisture  
Dew Point 46 °F    
Average Humidity 56    
Maximum Humidity 90    
Minimum Humidity 25    
Precipitation  
Precipitation 0.00 in - - ()
Sea Level Pressure  
Sea Level Pressure 30.19 in    
Wind  
Wind Speed 2 mph (NNE)    
Max Wind Speed 7 mph    
Max Gust Speed -    
Visibility 10 miles    
Events      
Averages and records for this station are not official NWS values.
T = Trace of Precipitation, MM = Missing Value Source: NWS Daily Summary

Daily Weather History Graph

Daily Weather History Graph

Search for Another Location

Airport:

Trip Planner

Search our weather history database for the weather conditions in past years. The results will help you decide how hot, cold, wet, or windy it might be!

Date:

Astronomy

Oct. 04, 2011 Rise Set
Actual Time 6:40 AM CDT 6:26 PM CDT
Civil Twilight 6:16 AM CDT 6:51 PM CDT
Nautical Twilight 5:48 AM CDT 7:19 PM CDT
Astronomical Twilight 5:20 AM CDT 7:47 PM CDT
Moon 2:04 PM CDT (10/4) No Moon Set
Length of Visible Light 12h 34m
Length of Day
11h 46m
First Quarter, 56% of the Moon is Illuminated
Oct 4
First Quarter
Oct 11
Full
Oct 19
Last Quarter
Oct 26
New
Nov 2
First Quarter

Hourly Weather History & Observations

Time (CDT) Temp. Dew Point Humidity Pressure Visibility Wind Dir Wind Speed Gust Speed Precip Events Conditions
12:58 AM 52.0 °F 46.9 °F 83% 30.19 in 10.0 mi Calm Calm - N/A   Clear
1:58 AM 54.0 °F 45.0 °F 72% 30.19 in 10.0 mi North 4.6 mph - N/A   Clear
2:58 AM 52.0 °F 45.0 °F 77% 30.19 in 10.0 mi Calm Calm - N/A   Clear
3:58 AM 50.0 °F 44.1 °F 80% 30.19 in 10.0 mi Calm Calm - N/A   Clear
4:58 AM 51.1 °F 44.1 °F 77% 30.20 in 10.0 mi Calm Calm - N/A   Clear
5:58 AM 53.1 °F 42.1 °F 66% 30.21 in 10.0 mi Calm Calm - N/A   Clear
6:58 AM 46.9 °F 44.1 °F 90% 30.23 in 10.0 mi Calm Calm - N/A   Clear
7:58 AM 59.0 °F 45.0 °F 60% 30.24 in 10.0 mi NNE 4.6 mph - N/A   Clear
8:58 AM 64.9 °F 46.0 °F 50% 30.26 in 10.0 mi NE 5.8 mph - N/A   Clear
9:58 AM 71.1 °F 45.0 °F 39% 30.26 in 10.0 mi East 5.8 mph - N/A   Clear
10:58 AM 73.9 °F 44.1 °F 34% 30.25 in 10.0 mi Variable 3.5 mph - N/A   Clear
11:58 AM 78.1 °F 41.0 °F 27% 30.24 in 10.0 mi NNE 3.5 mph - N/A   Clear
12:58 PM 81.0 °F 43.0 °F 26% 30.21 in 10.0 mi Variable 3.5 mph - N/A   Clear
1:58 PM 82.0 °F 44.1 °F 26% 30.18 in 10.0 mi Variable 6.9 mph - N/A   Clear
2:58 PM 82.0 °F 43.0 °F 25% 30.16 in 10.0 mi Calm Calm - N/A   Clear
3:58 PM 82.0 °F 46.0 °F 28% 30.15 in 10.0 mi NNE 5.8 mph - N/A   Clear
4:58 PM 81.0 °F 46.0 °F 29% 30.15 in 10.0 mi NNE 6.9 mph - N/A   Clear
5:58 PM 73.9 °F 50.0 °F 43% 30.15 in 10.0 mi Calm Calm - N/A   Clear
6:58 PM 68.0 °F 52.0 °F 56% 30.15 in 10.0 mi Calm Calm - N/A   Clear
7:58 PM 63.0 °F 52.0 °F 67% 30.17 in 10.0 mi Calm Calm - N/A   Clear
8:58 PM 60.1 °F 51.1 °F 72% 30.18 in 10.0 mi Calm Calm - N/A   Clear
9:58 PM 60.1 °F 50.0 °F 69% 30.18 in 10.0 mi NNE 3.5 mph - N/A   Clear
10:58 PM 60.1 °F 50.0 °F 69% 30.18 in 10.0 mi North 3.5 mph - N/A   Clear
11:58 PM 57.9 °F 50.0 °F 75% 30.17 in 10.0 mi Calm Calm - N/A   Clear